Flag for Greece Weather past 2 weeks in Thessaloniki, Greece

57 °F

Partly sunny.

Feels Like: 55 °F
Forecast: 42 / 56 °F
Wind: 9 mph from Southeast

Location: Thessaloniki Airport

Current Time: Nov 27, 2015 at 5:34:16 PM

Latest Report: Nov 27, 2015 at 4:50 PM

Visibility: N/A

Pressure: 29.59 "Hg

Humidity: 88%

Dew point: 54 °F

Location of ThessalonikiLocation

Historic Weather in Thessaloniki — Graph


Thessaloniki temperature yesterday

Maximum temperature yesterday: 59 °F (at 11:50 AM)
Minimum temperature yesterday: 48 °F (at 4:20 AM)
Average temperature yesterday: 54 °F

Past Weeks' High & Low Weather Summary

High75 °F (Nov 22, 1:50 PM)100% (Nov 13, 6:50 AM)30.33 "Hg (Nov 13, 6:50 AM)
Low43 °F (Nov 19, 4:50 AM)38% (Nov 22, 1:20 PM)29.47 "Hg (Nov 26, 1:50 AM)
Average58 °F79%29.96 "Hg
* Reported Nov 12 4:20 PM — Nov 27 4:20 PM, Thessaloniki, Weather by CustomWeather, © 2015

Note: Actual official high and low records may vary slightly from our data, if they occured in-between our weather recording intervals... More about our weather records


Thessaloniki weather history for previous 24 hours

Time TempWeatherWind HumidityBarometerVisibility
4:20 PM
Fri, Nov 27
57 °FPartly sunny.9 mph94%29.59 "HgN/A
3:20 PM59 °FThunderstorms. Partly sunny.9 mph94%29.59 "HgN/A
2:50 PM59 °FThunderstorms. Partly sunny.9 mph94%29.59 "Hg5 mi
2:20 PM61 °FThunderstorms. Mostly cloudy.10 mph83%29.59 "Hg5 mi
1:50 PM63 °FLight rain. More clouds than sun.10 mph73%29.59 "HgN/A
1:20 PM63 °FMore clouds than sun.13 mph64%29.59 "HgN/A
12:50 PM63 °FBroken clouds.14 mph77%29.62 "HgN/A
12:20 PM61 °FMore clouds than sun.14 mph77%29.62 "HgN/A
11:50 AM59 °FLight rain. More clouds than sun.13 mph88%29.65 "HgN/A
11:20 AM61 °FLight rain. Mostly cloudy.14 mph77%29.65 "HgN/A
10:50 AM61 °FDrizzle. Mostly cloudy.8 mph83%29.65 "HgN/A
10:20 AM59 °FLight rain. Mostly cloudy.9 mph82%29.65 "HgN/A
9:50 AM57 °FLight rain. Mostly cloudy.7 mph88%29.65 "HgN/A
9:20 AM59 °FLight rain. Mostly cloudy.9 mph82%29.65 "HgN/A
8:50 AM57 °FBroken clouds.8 mph88%29.62 "HgN/A
8:20 AM57 °FBroken clouds.8 mph82%29.62 "HgN/A
7:50 AM55 °FBroken clouds.6 mph88%29.62 "HgN/A
7:20 AM55 °FPartly cloudy.3 mph88%29.62 "HgN/A
6:50 AM55 °FPartly cloudy.5 mph94%29.62 "HgN/A
5:50 AM54 °FLight rain. Partly cloudy.5 mph94%29.62 "HgN/A
5:20 AM52 °FLight rain. Partly cloudy.3 mph94%29.59 "HgN/A
4:50 AM54 °FPassing clouds.2 mph94%29.59 "HgN/A
4:20 AM54 °FLight rain. Passing clouds.3 mph94%29.62 "Hg5 mi
3:50 AM54 °FLight rain. Passing clouds.6 mph94%29.62 "Hg5 mi
3:20 AM54 °FPassing clouds.2 mph94%29.62 "HgN/A
2:50 AM54 °FPassing clouds.No wind94%29.62 "HgN/A
2:20 AM54 °FPassing clouds.3 mph88%29.62 "HgN/A
1:50 AM54 °FPassing clouds.5 mph88%29.62 "HgN/A
1:20 AM54 °FPassing clouds.7 mph88%29.62 "HgN/A
12:50 AM52 °FPassing clouds.7 mph94%29.62 "HgN/A
11:50 PM
Thu, Nov 26
54 °FRain. Passing clouds.9 mph88%29.62 "Hg4 mi
11:20 PM54 °FLight rain. Passing clouds.6 mph88%29.62 "Hg5 mi
10:20 PM52 °FPassing clouds.1 mph94%29.62 "HgN/A
9:50 PM52 °FPartly cloudy.2 mph94%29.62 "HgN/A
9:20 PM54 °FPartly cloudy.3 mph88%29.62 "HgN/A
8:50 PM54 °FPartly cloudy.3 mph88%29.62 "HgN/A
8:20 PM54 °FPassing clouds.3 mph94%29.62 "HgN/A
7:50 PM54 °FPassing clouds.5 mph94%29.59 "HgN/A
7:20 PM54 °FPassing clouds.6 mph88%29.59 "HgN/A
6:50 PM54 °FPassing clouds.2 mph88%29.59 "HgN/A
6:20 PM54 °FPassing clouds.2 mph94%29.56 "HgN/A
5:50 PM55 °FPassing clouds.1 mph88%29.56 "HgN/A
5:20 PM57 °FPartly cloudy.2 mph77%29.56 "HgN/A
Weather by CustomWeather, © 2015

See weather overviewHow to use our weather pages